#timestamp,LO_Frequency,Hit,StdDev 
1597086015.3,286046999.0,N
1597086035.1,286046998.8,N
1597086055.9,286046999.3,N
1597086075.7,286046999.3,N
1597086095.6,286046998.3,N
1597086115.4,286047001.2,N
1597086135.2,286047000.8,N
1597086155.1,286047001.2,N
1597086156.0,286047001.2,N
1597086175.8,286046998.5,N
1597086195.7,286046998.2,N
1597086215.5,286046998.8,N
1597086235.3,286047001.1,N
1597086255.2,286047000.6,N
1597086275.0,286047001.1,N
1597086305.9,286046998.3,E
1597086315.9,286047001.2,N
1597086335.7,286047002.1,P
1597086355.5,286047004.2,P
1597086375.4,286047005.3,Y
1597086395.2,286047001.4,P
1597086415.0,286047001.6,N
1597086416.0,286047001.6,P
1597086435.8,286047001.6,Y
1597086455.6,286046998.1,P
1597086475.5,286047000.8,N
1597086495.3,286046998.3,N
1597086515.1,286046999.0,N
1597086535.9,286046999.6,N
1597086555.7,286046996.8,N
1597086575.5,286046996.8,N
1597086595.4,286046996.7,N
1597086615.2,286046997.0,N
1597086635.1,286046996.8,N
1597086636.0,286046996.8,N
1597086655.8,286046997.8,N
1597086675.6,286046997.9,N
1597086695.5,286046997.6,N
1597086715.3,286046997.9,N
1597086735.1,286046997.3,N
1597086755.9,286046996.7,N
1597086775.7,286046996.8,N
1597086795.6,286046997.3,N
1597086815.4,286046999.3,N
1597086835.2,286046998.3,N
1597086855.1,286046998.6,N
1597086856.0,286046998.6,N
1597086875.8,286046999.2,N
1597086895.6,286046996.6,N
1597086915.5,286046999.3,N
1597086935.3,286046999.6,N
1597086955.2,286046996.7,N
1597086975.9,286046997.1,N
1597086995.7,286046999.2,N
1597087015.6,286046997.0,N
1597087035.4,286046998.8,N
1597087055.3,286046999.5,N
1597087075.1,286046999.4,N
1597087076.0,286046999.4,N
1597087095.8,286046999.2,N
1597087115.7,286046998.7,N
1597087135.5,286046998.9,N
1597087155.3,286046998.2,N
1597087175.2,286047000.8,N
1597087195.0,286046998.1,N
1597087195.9,286046998.1,N
1597087215.8,286046998.4,N
1597087235.6,286047000.8,N
1597087255.4,286046998.6,N
1597087275.3,286046998.2,N
1597087295.1,286047001.0,N
1597087315.9,286046998.4,N
1597087335.7,286046998.1,N
1597087355.5,286046998.1,N
1597087375.4,286047000.7,N
1597087395.2,286046998.2,N
1597087415.0,286046998.9,N
1597087416.0,286046998.9,N
1597087435.8,286047000.7,N
1597087455.6,286047001.1,N
1597087475.5,286046998.7,N
1597087495.3,286046998.2,N
1597087515.1,286047001.2,N
1597087535.9,286047000.8,N
1597087555.7,286047001.0,N
1597087575.6,286047000.8,N
1597087595.4,286047000.9,N
1597087615.2,286046999.9,N
1597087635.1,286047000.4,N
1597087636.0,286047000.4,N
1597087655.8,286047000.0,N
1597087675.7,286047000.8,N
1597087695.5,286047000.6,N
1597087715.3,286047000.6,N
1597087735.2,286047000.7,N
1597087755.0,286046998.6,N
1597087755.9,286046998.6,N
1597087775.7,286047000.5,N
1597087795.6,286047001.1,N
1597087815.4,286047000.4,N
1597087835.3,286047000.0,N
1597087855.1,286047000.0,N
1597087875.8,286047000.6,N
1597087895.7,286047002.8,N
1597087915.5,286047002.2,N
1597087935.4,286047002.5,N
1597087955.2,286047001.6,N
1597087975.0,286047002.5,N
1597087975.9,286047002.5,N
1597087995.8,286047002.4,N
1597088015.6,286047002.4,N
1597088035.4,286047002.2,N
1597088055.3,286047002.7,N
1597088075.1,286047002.6,N
1597088095.9,286047002.3,N
1597088115.7,286047002.2,N
1597088135.5,286047001.7,N
1597088155.4,286047002.0,N
1597088175.2,286047002.6,N
1597088195.0,286047002.6,N
1597088195.9,286047002.6,N
1597088215.8,286047001.5,N
1597088235.6,286047002.2,N
1597088255.5,286047002.5,N
1597088275.3,286047002.1,N
1597088295.1,286047001.3,N
1597088315.9,286047002.2,N
1597088335.7,286047002.2,N
1597088355.6,286047002.2,N
1597088375.4,286047002.0,N
1597088395.2,286047002.2,Y
1597088415.1,286046998.4,P
1597088416.0,286046998.4,N
1597088435.8,286046998.1,N
1597088455.6,286046998.2,N
1597088475.5,286047000.7,N
1597088495.3,286046998.1,N
1597088515.2,286047000.7,N
1597088535.9,286047001.0,N
1597088555.7,286047001.1,N
1597088575.6,286046998.2,N
1597088595.4,286046998.4,N
1597088615.3,286046998.5,N
1597088635.1,286046998.1,N
1597088636.0,286046998.1,N
1597088655.8,286046998.7,N
1597088675.7,286046998.2,N
1597088695.5,286047000.5,N
1597088715.3,286047000.5,N
1597088735.2,286047003.2,N
1597088755.0,286047007.5,Y
1597088755.9,286047007.5,P
1597088775.8,286047005.7,N
1597088795.6,286047003.2,N
1597088815.4,286047011.9,Y
1597088835.3,286046999.6,P
1597088855.1,286046999.4,N
1597088875.8,286046996.6,N
1597088895.7,286046997.4,N
1597088915.5,286046998.0,N
1597088935.4,286046997.5,N
1597088955.2,286046995.4,N
1597088975.0,286046995.3,N
1597088975.9,286046995.3,N
1597088995.8,286046997.5,N
1597089015.6,286046997.3,N
1597089035.4,286046998.0,N
1597089055.3,286046999.1,N
1597089075.1,286046999.4,N
1597089095.9,286046998.4,N
1597089115.7,286047000.8,N
1597089135.5,286046998.1,N
1597089155.4,286046998.3,N
1597089175.2,286046999.4,N
1597089195.0,286046999.4,N
1597089195.9,286046999.4,N
1597089215.8,286046999.2,N
1597089235.6,286046999.0,N
1597089255.5,286046999.3,N
1597089275.3,286046998.6,N
1597089295.1,286046998.2,N
1597089315.9,286046998.3,N
1597089335.7,286046998.9,N
1597089355.5,286046998.9,N
1597089375.4,286046998.3,N
1597089395.2,286046999.6,N
1597089415.1,286046998.8,N
1597089416.0,286046998.8,N
1597089435.8,286046998.9,N
1597089455.6,286046998.7,N
1597089475.5,286046999.0,N
1597089495.3,286046998.9,N
1597089515.1,286046999.2,N
1597089535.9,286046999.1,N
1597089555.7,286046997.2,Y
1597089575.6,286046998.4,P
1597089595.4,286046996.9,P
